{"data":{"norad_id":68314,"intl_designator":"2026-057W","name":"STARLINK-37155","alt_names":[],"object_type":"PAYLOAD","status":"ACTIVE","operator":null,"country":"US","launch_date":"2026-03-20","launch_site_code":"AFWTR","launch_vehicle":null,"mission":null,"orbit_class":"UNKNOWN","rcs_meters":null,"size_class":null,"mass_kg":null,"dimensions":null,"purposes":["comms"],"wikipedia_slug":null,"has_3d_model":false,"image_url":null,"decayed_at":null,"tle_current":{"epoch":"2026-09-19T07:45:50.691168Z","epoch_age_seconds":150063,"freshness":"FRESH","line1":"1 68314U 26057W   26262.32350337  .00019727  00000+0  61177-3 0  9996","line2":"2 68314  97.2851  27.7467 0000477  83.1995 276.9303 15.33446372 28336","mean_motion":15.33446372,"eccentricity":4.77e-5,"inclination_deg":97.2851,"raan_deg":27.7467,"arg_perigee_deg":83.1995,"mean_anomaly_deg":276.9303,"bstar":0.00061177,"rev_number":2833,"period_min":93.90612063739,"perigee_km":465.21264902485,"apogee_km":465.86553572407,"semimajor_km":6843.6760923745,"source":"CELESTRAK","updated_at":"2026-09-20T09:00:43.880758Z"}}}